| time (UTC) | temp F | wind direction | speed MPH | gust MPH | rain 1hr in | rain 24hr in | rain mn in | humidity % | barometer mb |
| 20260905060951 | 80 | 194 | 3.0 | 7.0 | 0.00 | 0.00 | 0.00 | 21 | 1009.7 |
| 20260905060330 | 80 | 146 | 4.0 | 7.0 | 0.00 | 0.00 | 0.00 | 21 | 1009.8 |
| 20260905060011 | 80 | 173 | 3.0 | 7.0 | 0.00 | 0.00 | 0.00 | 21 | 1009.8 |
| 20260905055653 | 80 | 175 | 3.0 | 7.0 | 0.00 | 0.00 | 0.00 | 21 | 1009.8 |
| 20260905055337 | 80 | 151 | 2.0 | 5.0 | 0.00 | 0.00 | 0.00 | 21 | 1009.8 |
| 20260905055021 | 80 | 173 | 1.0 | 4.0 | 0.00 | 0.00 | 0.00 | 21 | 1009.8 |
| 20260905054706 | 80 | 166 | 1.0 | 4.0 | 0.00 | 0.00 | 0.00 | 21 | 1009.8 |
| 20260905054350 | 80 | 198 | 1.0 | 4.0 | 0.00 | 0.00 | 0.00 | 21 | 1009.8 |
| 20260905054025 | 80 | 194 | 1.0 | 6.0 | 0.00 | 0.00 | 0.00 | 21 | 1009.7 |
| 20260905053709 | 80 | 202 | 2.0 | 6.0 | 0.00 | 0.00 | 0.00 | 21 | 1009.7 |
| 20260905053349 | 81 | 200 | 2.0 | 6.0 | 0.00 | 0.00 | 0.00 | 21 | 1009.7 |
| 20260905052727 | 81 | 186 | 2.0 | 6.0 | 0.00 | 0.00 | 0.00 | 21 | 1009.7 |
| 20260905052402 | 81 | 155 | 3.0 | 6.0 | 0.00 | 0.00 | 0.00 | 21 | 1009.7 |
| 20260905052037 | 81 | 167 | 2.0 | 5.0 | 0.00 | 0.00 | 0.00 | 22 | 1009.7 |
| 20260905051720 | 81 | 161 | 2.0 | 5.0 | 0.00 | 0.00 | 0.00 | 21 | 1009.7 |
| 20260905051401 | 81 | 165 | 2.0 | 5.0 | 0.00 | 0.00 | 0.00 | 21 | 1009.6 |
| 20260905051041 | 81 | 161 | 2.0 | 5.0 | 0.00 | 0.00 | 0.00 | 21 | 1009.6 |
| 20260905050722 | 81 | 173 | 2.0 | 5.0 | 0.00 | 0.00 | 0.00 | 20 | 1009.6 |
| 20260905050408 | 81 | 146 | 2.0 | 5.0 | 0.00 | 0.00 | 0.00 | 21 | 1009.5 |
| 20260905050047 | 81 | 157 | 1.0 | 5.0 | 0.00 | 0.00 | 0.00 | 21 | 1009.5 |
| 20260905045726 | 81 | 119 | 1.0 | 3.0 | 0.00 | 0.00 | 0.00 | 21 | 1009.5 |
| 20260905045406 | 81 | 155 | 1.0 | 2.0 | 0.00 | 0.00 | 0.00 | 21 | 1009.4 |
| 20260905045043 | 81 | 155 | 1.0 | 2.0 | 0.00 | 0.00 | 0.00 | 21 | 1009.4 |
| 20260905044721 | 81 | 155 | 1.0 | 2.0 | 0.00 | 0.00 | 0.00 | 21 | 1009.4 |
| 20260905044355 | 82 | 155 | 0.0 | 3.0 | 0.00 | 0.00 | 0.00 | 22 | 1009.3 |
| 20260905044030 | 82 | 155 | 0.0 | 3.0 | 0.00 | 0.00 | 0.00 | 20 | 1009.4 |
| 20260905043714 | 83 | 206 | 0.0 | 3.0 | 0.00 | 0.00 | 0.00 | 20 | 1009.3 |
| 20260905043359 | 83 | 205 | 1.0 | 3.0 | 0.00 | 0.00 | 0.00 | 19 | 1009.3 |
| 20260905042733 | 83 | 214 | 1.0 | 3.0 | 0.00 | 0.00 | 0.00 | 19 | 1009.3 |
| 20260905042408 | 84 | 211 | 1.0 | 3.0 | 0.00 | 0.00 | 0.00 | 19 | 1009.2 |
| 20260905042046 | 84 | 242 | 2.0 | 3.0 | 0.00 | 0.00 | 0.00 | 19 | 1009.2 |
| 20260905041727 | 84 | 215 | 1.0 | 3.0 | 0.00 | 0.00 | 0.00 | 19 | 1009.2 |
| 20260905041409 | 84 | 250 | 1.0 | 3.0 | 0.00 | 0.00 | 0.00 | 18 | 1009.1 |
| 20260905041053 | 85 | 207 | 1.0 | 3.0 | 0.00 | 0.00 | 0.00 | 18 | 1009.1 |
| 20260905040736 | 85 | 207 | 1.0 | 3.0 | 0.00 | 0.00 | 0.00 | 18 | 1009.1 |
| 20260905040418 | 85 | 223 | 1.0 | 3.0 | 0.00 | 0.00 | 0.00 | 18 | 1009.0 |
| 20260905040052 | 85 | 209 | 1.0 | 6.0 | 0.00 | 0.00 | 0.00 | 17 | 1009.0 |
| 20260905035729 | 85 | 205 | 1.0 | 6.0 | 0.00 | 0.00 | 0.00 | 18 | 1009.1 |
| 20260905035406 | 85 | 190 | 2.0 | 10.0 | 0.00 | 0.00 | 0.00 | 17 | 1009.0 |
| 20260905035046 | 86 | 205 | 2.0 | 10.0 | 0.00 | 0.00 | 0.00 | 17 | 1008.9 |
| 20260905034724 | 86 | 201 | 2.0 | 10.0 | 0.00 | 0.00 | 0.00 | 18 | 1009.0 |
| 20260905034402 | 86 | 216 | 3.0 | 10.0 | 0.00 | 0.00 | 0.00 | 17 | 1008.9 |
| 20260905034040 | 86 | 234 | 3.0 | 10.0 | 0.00 | 0.00 | 0.00 | 18 | 1008.8 |
| 20260905033722 | 86 | 190 | 3.0 | 10.0 | 0.00 | 0.00 | 0.00 | 18 | 1008.8 |
| 20260905033403 | 86 | 204 | 3.0 | 7.0 | 0.00 | 0.00 | 0.00 | 18 | 1008.7 |
| 20260905033042 | 87 | 232 | 3.0 | 8.0 | 0.00 | 0.00 | 0.00 | 17 | 1008.6 |
| 20260905032115 | 87 | 248 | 3.0 | 11.0 | 0.00 | 0.00 | 0.00 | 17 | 1008.5 |
| 20260905031454 | 87 | 234 | 4.0 | 11.0 | 0.00 | 0.00 | 0.00 | 17 | 1008.5 |
| 20260905031136 | 87 | 206 | 4.0 | 13.0 | 0.00 | 0.00 | 0.00 | 17 | 1008.5 |
| 20260905030815 | 87 | 213 | 5.0 | 13.0 | 0.00 | 0.00 | 0.00 | 17 | 1008.3 |
| 20260905030456 | 88 | 263 | 6.0 | 13.0 | 0.00 | 0.00 | 0.00 | 16 | 1008.3 |
| 20260905030140 | 88 | 237 | 6.0 | 13.0 | 0.00 | 0.00 | 0.00 | 16 | 1008.3 |
| 20260905025825 | 88 | 206 | 6.0 | 13.0 | 0.00 | 0.00 | 0.00 | 16 | 1008.2 |
| 20260905025200 | 88 | 228 | 5.0 | 12.0 | 0.00 | 0.00 | 0.00 | 16 | 1008.1 |
| 20260905024837 | 88 | 202 | 5.0 | 12.0 | 0.00 | 0.00 | 0.00 | 16 | 1008.2 |
| 20260905024521 | 88 | 273 | 5.0 | 12.0 | 0.00 | 0.00 | 0.00 | 16 | 1008.1 |
| 20260905024206 | 88 | 244 | 5.0 | 12.0 | 0.00 | 0.00 | 0.00 | 16 | 1008.1 |
| 20260905023846 | 88 | 188 | 5.0 | 11.0 | 0.00 | 0.00 | 0.00 | 17 | 1008.1 |
| 20260905023529 | 89 | 240 | 5.0 | 11.0 | 0.00 | 0.00 | 0.00 | 16 | 1008.1 |
| 20260905023213 | 89 | 226 | 6.0 | 15.0 | 0.00 | 0.00 | 0.00 | 16 | 1008.1 |
| 20260905022557 | 89 | 261 | 6.0 | 15.0 | 0.00 | 0.00 | 0.00 | 16 | 1008.1 |
| 20260905022243 | 89 | 240 | 6.0 | 15.0 | 0.00 | 0.00 | 0.00 | 16 | 1008.0 |
| 20260905021922 | 89 | 244 | 6.0 | 15.0 | 0.00 | 0.00 | 0.00 | 15 | 1008.0 |
| 20260905021601 | 89 | 238 | 7.0 | 15.0 | 0.00 | 0.00 | 0.00 | 15 | 1008.0 |
| 20260905021246 | 90 | 186 | 7.0 | 15.0 | 0.00 | 0.00 | 0.00 | 15 | 1008.1 |
| 20260905020925 | 90 | 241 | 8.0 | 15.0 | 0.00 | 0.00 | 0.00 | 15 | 1008.0 |
| 20260905020602 | 90 | 251 | 7.0 | 15.0 | 0.00 | 0.00 | 0.00 | 15 | 1008.0 |
| 20260905020243 | 90 | 217 | 7.0 | 13.0 | 0.00 | 0.00 | 0.00 | 15 | 1008.1 |
| 20260905015918 | 90 | 236 | 8.0 | 13.0 | 0.00 | 0.00 | 0.00 | 15 | 1008.0 |
| 20260905015300 | 91 | 247 | 7.0 | 13.0 | 0.00 | 0.00 | 0.00 | 14 | 1008.0 |
| 20260905014936 | 91 | 269 | 6.0 | 13.0 | 0.00 | 0.00 | 0.00 | 13 | 1008.0 |
| 20260905014618 | 91 | 240 | 5.0 | 12.0 | 0.00 | 0.00 | 0.00 | 13 | 1008.0 |
| 20260905014305 | 91 | 263 | 5.0 | 12.0 | 0.00 | 0.00 | 0.00 | 13 | 1008.0 |
| 20260905013939 | 91 | 238 | 5.0 | 13.0 | 0.00 | 0.00 | 0.00 | 14 | 1008.0 |
| 20260905013617 | 92 | 218 | 5.0 | 13.0 | 0.00 | 0.00 | 0.00 | 13 | 1008.0 |
| 20260905013300 | 92 | 246 | 6.0 | 13.0 | 0.00 | 0.00 | 0.00 | 13 | 1008.0 |
| 20260905012945 | 92 | 172 | 7.0 | 13.0 | 0.00 | 0.00 | 0.00 | 13 | 1008.0 |
| 20260905012626 | 92 | 204 | 7.0 | 13.0 | 0.00 | 0.00 | 0.00 | 13 | 1008.0 |
| 20260905012309 | 92 | 201 | 5.0 | 13.0 | 0.00 | 0.00 | 0.00 | 13 | 1007.8 |
| 20260905011946 | 92 | 182 | 5.0 | 10.0 | 0.00 | 0.00 | 0.00 | 13 | 1007.9 |
| 20260905011627 | 92 | 248 | 5.0 | 13.0 | 0.00 | 0.00 | 0.00 | 14 | 1007.9 |
| 20260905011307 | 92 | 193 | 6.0 | 13.0 | 0.00 | 0.00 | 0.00 | 13 | 1007.9 |
| 20260905010947 | 93 | 219 | 6.0 | 13.0 | 0.00 | 0.00 | 0.00 | 13 | 1007.9 |
| 20260905010624 | 93 | 205 | 6.0 | 14.0 | 0.00 | 0.00 | 0.00 | 13 | 1007.9 |
| 20260905010259 | 93 | 204 | 7.0 | 14.0 | 0.00 | 0.00 | 0.00 | 13 | 1007.8 |
| 20260905005934 | 93 | 224 | 8.0 | 14.0 | 0.00 | 0.00 | 0.00 | 13 | 1007.8 |
| 20260905005615 | 93 | 238 | 8.0 | 15.0 | 0.00 | 0.00 | 0.00 | 13 | 1007.8 |
| 20260905004953 | 94 | 187 | 6.0 | 15.0 | 0.00 | 0.00 | 0.00 | 13 | 1007.7 |
| 20260905004638 | 94 | 215 | 7.0 | 15.0 | 0.00 | 0.00 | 0.00 | 13 | 1007.7 |
| 20260905004324 | 94 | 236 | 7.0 | 15.0 | 0.00 | 0.00 | 0.00 | 13 | 1007.8 |
| 20260905004000 | 94 | 292 | 8.0 | 15.0 | 0.00 | 0.00 | 0.00 | 13 | 1007.8 |
| 20260905003645 | 94 | 209 | 7.0 | 17.0 | 0.00 | 0.00 | 0.00 | 12 | 1007.8 |
| 20260905003327 | 94 | 244 | 6.0 | 17.0 | 0.00 | 0.00 | 0.00 | 12 | 1007.7 |
| 20260905002707 | 94 | 185 | 7.0 | 17.0 | 0.00 | 0.00 | 0.00 | 12 | 1007.6 |
| 20260905002348 | 95 | 205 | 8.0 | 17.0 | 0.00 | 0.00 | 0.00 | 12 | 1007.8 |
| 20260905002023 | 94 | 134 | 8.0 | 17.0 | 0.00 | 0.00 | 0.00 | 12 | 1007.6 |
| 20260905001707 | 95 | 204 | 7.0 | 17.0 | 0.00 | 0.00 | 0.00 | 12 | 1007.8 |
| 20260905001351 | 95 | 151 | 6.0 | 17.0 | 0.00 | 0.00 | 0.00 | 12 | 1007.8 |
| 20260905001031 | 95 | 198 | 5.0 | 17.0 | 0.00 | 0.00 | 0.00 | 13 | 1007.8 |
| 20260905000413 | 95 | 235 | 7.0 | 17.0 | 0.00 | 0.00 | 0.00 | 13 | 1007.9 |
| 20260905000049 | 95 | 202 | 7.0 | 17.0 | 0.00 | 0.00 | 0.00 | 13 | 1007.9 |
| 20260904235433 | 95 | 269 | 7.0 | 15.0 | 0.00 | 0.00 | 0.00 | 13 | 1007.8 |
| 20260904235117 | 95 | 205 | 8.0 | 21.0 | 0.00 | 0.00 | 0.00 | 12 | 1007.8 |
| 20260904234753 | 95 | 190 | 7.0 | 21.0 | 0.00 | 0.00 | 0.00 | 12 | 1007.8 |
| 20260904234438 | 96 | 236 | 7.0 | 21.0 | 0.00 | 0.00 | 0.00 | 12 | 1007.8 |
| 20260904234118 | 96 | 189 | 8.0 | 21.0 | 0.00 | 0.00 | 0.00 | 12 | 1007.9 |
| 20260904233458 | 96 | 248 | 10.0 | 21.0 | 0.00 | 0.00 | 0.00 | 12 | 1007.9 |
| 20260904233134 | 96 | 225 | 9.0 | 18.0 | 0.00 | 0.00 | 0.00 | 12 | 1007.8 |
| 20260904232818 | 96 | 225 | 8.0 | 18.0 | 0.00 | 0.00 | 0.00 | 12 | 1007.8 |
| 20260904232454 | 96 | 192 | 7.0 | 16.0 | 0.00 | 0.00 | 0.00 | 12 | 1007.8 |
| 20260904232140 | 97 | 167 | 6.0 | 14.0 | 0.00 | 0.00 | 0.00 | 12 | 1007.9 |
| 20260904231820 | 97 | 277 | 4.0 | 16.0 | 0.00 | 0.00 | 0.00 | 12 | 1007.8 |
| 20260904231455 | 96 | 229 | 5.0 | 16.0 | 0.00 | 0.00 | 0.00 | 12 | 1007.8 |
| 20260904231137 | 96 | 246 | 7.0 | 16.0 | 0.00 | 0.00 | 0.00 | 12 | 1007.9 |
| 20260904230817 | 96 | 219 | 8.0 | 17.0 | 0.00 | 0.00 | 0.00 | 12 | 1007.9 |
| 20260904225853 | 96 | 204 | 8.0 | 17.0 | 0.00 | 0.00 | 0.00 | 13 | 1007.9 |
| 20260904225234 | 97 | 240 | 6.0 | 17.0 | 0.00 | 0.00 | 0.00 | 12 | 1007.9 |
| 20260904224914 | 98 | 198 | 6.0 | 13.0 | 0.00 | 0.00 | 0.00 | 12 | 1008.1 |
| 20260904224554 | 97 | 157 | 5.0 | 13.0 | 0.00 | 0.00 | 0.00 | 12 | 1008.1 |
| 20260904223627 | 97 | 323 | 5.0 | 17.0 | 0.00 | 0.00 | 0.00 | 13 | 1008.2 |
| 20260904223007 | 97 | 157 | 6.0 | 17.0 | 0.00 | 0.00 | 0.00 | 12 | 1008.3 |
| 20260904222642 | 97 | 202 | 6.0 | 17.0 | 0.00 | 0.00 | 0.00 | 13 | 1008.4 |
| 20260904222322 | 98 | 222 | 6.0 | 17.0 | 0.00 | 0.00 | 0.00 | 13 | 1008.4 |
| 20260904221954 | 98 | 203 | 5.0 | 15.0 | 0.00 | 0.00 | 0.00 | 12 | 1008.3 |
| 20260904221629 | 97 | 147 | 4.0 | 9.0 | 0.00 | 0.00 | 0.00 | 12 | 1008.4 |
| 20260904221308 | 97 | 194 | 5.0 | 15.0 | 0.00 | 0.00 | 0.00 | 13 | 1008.4 |
| 20260904220953 | 97 | 231 | 6.0 | 15.0 | 0.00 | 0.00 | 0.00 | 13 | 1008.4 |
| 20260904220631 | 97 | 223 | 7.0 | 15.0 | 0.00 | 0.00 | 0.00 | 13 | 1008.4 |
| 20260904220309 | 96 | 197 | 7.0 | 15.0 | 0.00 | 0.00 | 0.00 | 13 | 1008.5 |
| 20260904215953 | 97 | 221 | 7.0 | 15.0 | 0.00 | 0.00 | 0.00 | 13 | 1008.6 |
| 20260904215631 | 97 | 233 | 7.0 | 15.0 | 0.00 | 0.00 | 0.00 | 13 | 1008.6 |
| 20260904215310 | 97 | 187 | 7.0 | 15.0 | 0.00 | 0.00 | 0.00 | 14 | 1008.5 |
| 20260904214950 | 97 | 213 | 7.0 | 15.0 | 0.00 | 0.00 | 0.00 | 13 | 1008.7 |
| 20260904214633 | 97 | 186 | 6.0 | 15.0 | 0.00 | 0.00 | 0.00 | 12 | 1008.8 |
| 20260904214318 | 97 | 206 | 5.0 | 16.0 | 0.00 | 0.00 | 0.00 | 15 | 1008.8 |
| 20260904213956 | 96 | 180 | 6.0 | 16.0 | 0.00 | 0.00 | 0.00 | 13 | 1008.8 |
| 20260904213630 | 96 | 160 | 7.0 | 16.0 | 0.00 | 0.00 | 0.00 | 14 | 1008.9 |
| 20260904213308 | 97 | 219 | 8.0 | 16.0 | 0.00 | 0.00 | 0.00 | 13 | 1009.0 |
| 20260904212944 | 96 | 243 | 8.0 | 16.0 | 0.00 | 0.00 | 0.00 | 14 | 1008.9 |
| 20260904212619 | 96 | 233 | 6.0 | 16.0 | 0.00 | 0.00 | 0.00 | 14 | 1009.0 |
| 20260904211954 | 96 | 182 | 6.0 | 16.0 | 0.00 | 0.00 | 0.00 | 14 | 1009.1 |
| 20260904211637 | 95 | 163 | 7.0 | 16.0 | 0.00 | 0.00 | 0.00 | 15 | 1009.1 |
| 20260904211321 | 95 | 246 | 8.0 | 18.0 | 0.00 | 0.00 | 0.00 | 15 | 1009.1 |
| 20260904210956 | 95 | 198 | 8.0 | 18.0 | 0.00 | 0.00 | 0.00 | 15 | 1009.2 |
| 20260904210638 | 95 | 211 | 8.0 | 18.0 | 0.00 | 0.00 | 0.00 | 15 | 1009.3 |
| 20260904210321 | 95 | 165 | 8.0 | 18.0 | 0.00 | 0.00 | 0.00 | 14 | 1009.2 |
| 20260904205958 | 95 | 162 | 8.0 | 18.0 | 0.00 | 0.00 | 0.00 | 17 | 1009.4 |
| 20260904205634 | 95 | 166 | 8.0 | 18.0 | 0.00 | 0.00 | 0.00 | 14 | 1009.3 |
| 20260904205007 | 95 | 151 | 5.0 | 13.0 | 0.00 | 0.00 | 0.00 | 17 | 1009.3 |
| 20260904204353 | 95 | 212 | 5.0 | 13.0 | 0.00 | 0.00 | 0.00 | 16 | 1009.2 |
| 20260904204034 | 95 | 251 | 6.0 | 19.0 | 0.00 | 0.00 | 0.00 | 17 | 1009.3 |
| 20260904203711 | 94 | 169 | 8.0 | 19.0 | 0.00 | 0.00 | 0.00 | 16 | 1009.4 |
| 20260904203055 | 94 | 170 | 8.0 | 22.0 | 0.00 | 0.00 | 0.00 | 16 | 1009.5 |
| 20260904202428 | 93 | 166 | 7.0 | 22.0 | 0.00 | 0.00 | 0.00 | 18 | 1009.5 |
| 20260904202112 | 93 | 165 | 8.0 | 22.0 | 0.00 | 0.00 | 0.00 | 18 | 1009.6 |
| 20260904201746 | 94 | 205 | 7.0 | 22.0 | 0.00 | 0.00 | 0.00 | 18 | 1009.7 |
| 20260904201420 | 94 | 225 | 7.0 | 22.0 | 0.00 | 0.00 | 0.00 | 16 | 1009.6 |
| 20260904201103 | 93 | 215 | 6.0 | 19.0 | 0.00 | 0.00 | 0.00 | 17 | 1009.7 |
| 20260904200748 | 94 | 111 | 7.0 | 19.0 | 0.00 | 0.00 | 0.00 | 15 | 1009.8 |
| 20260904200428 | 94 | 133 | 7.0 | 19.0 | 0.00 | 0.00 | 0.00 | 15 | 1009.8 |
| 20260904195808 | 94 | 155 | 8.0 | 20.0 | 0.00 | 0.00 | 0.00 | 15 | 1010.0 |
| 20260904195444 | 93 | 245 | 9.0 | 20.0 | 0.00 | 0.00 | 0.00 | 16 | 1010.0 |
| 20260904195120 | 94 | 223 | 9.0 | 20.0 | 0.00 | 0.00 | 0.00 | 15 | 1010.0 |
| 20260904194457 | 94 | 160 | 8.0 | 20.0 | 0.00 | 0.00 | 0.00 | 15 | 1010.1 |
| 20260904193537 | 93 | 148 | 8.0 | 19.0 | 0.00 | 0.00 | 0.00 | 15 | 1010.1 |
| 20260904193212 | 93 | 205 | 8.0 | 19.0 | 0.00 | 0.00 | 0.00 | 16 | 1010.3 |
| 20260904192852 | 93 | 179 | 8.0 | 21.0 | 0.00 | 0.00 | 0.00 | 16 | 1010.2 |
| 20260904192527 | 92 | 271 | 8.0 | 21.0 | 0.00 | 0.00 | 0.00 | 17 | 1010.3 |
| 20260904192213 | 92 | 209 | 9.0 | 21.0 | 0.00 | 0.00 | 0.00 | 17 | 1010.3 |
| 20260904191552 | 93 | 176 | 9.0 | 22.0 | 0.00 | 0.00 | 0.00 | 17 | 1010.4 |
| 20260904191228 | 92 | 159 | 10.0 | 22.0 | 0.00 | 0.00 | 0.00 | 17 | 1010.3 |
| 20260904190910 | 92 | 144 | 10.0 | 22.0 | 0.00 | 0.00 | 0.00 | 17 | 1010.3 |
| 20260904190548 | 92 | 200 | 10.0 | 22.0 | 0.00 | 0.00 | 0.00 | 17 | 1010.4 |
| 20260904190228 | 92 | 201 | 10.0 | 22.0 | 0.00 | 0.00 | 0.00 | 16 | 1010.5 |
| 20260904185903 | 91 | 219 | 9.0 | 21.0 | 0.00 | 0.00 | 0.00 | 18 | 1010.6 |
| 20260904185541 | 91 | 155 | 9.0 | 21.0 | 0.00 | 0.00 | 0.00 | 17 | 1010.7 |
| 20260904185217 | 91 | 169 | 8.0 | 21.0 | 0.00 | 0.00 | 0.00 | 18 | 1010.7 |
| 20260904184858 | 91 | 181 | 9.0 | 21.0 | 0.00 | 0.00 | 0.00 | 17 | 1010.6 |
| 20260904184533 | 91 | 157 | 9.0 | 29.0 | 0.00 | 0.00 | 0.00 | 18 | 1010.7 |
| 20260904184209 | 90 | 148 | 10.0 | 29.0 | 0.00 | 0.00 | 0.00 | 17 | 1010.7 |
| 20260904183847 | 91 | 215 | 11.0 | 29.0 | 0.00 | 0.00 | 0.00 | 17 | 1010.7 |
| 20260904183229 | 91 | 306 | 13.0 | 29.0 | 0.00 | 0.00 | 0.00 | 16 | 1010.9 |
| 20260904182908 | 90 | 136 | 12.0 | 29.0 | 0.00 | 0.00 | 0.00 | 17 | 1010.9 |
| 20260904182552 | 90 | 177 | 11.0 | 29.0 | 0.00 | 0.00 | 0.00 | 17 | 1010.8 |
| 20260904182234 | 90 | 195 | 12.0 | 25.0 | 0.00 | 0.00 | 0.00 | 17 | 1010.9 |
| 20260904181913 | 90 | 170 | 12.0 | 25.0 | 0.00 | 0.00 | 0.00 | 17 | 1010.8 |
| 20260904181557 | 90 | 185 | 13.0 | 25.0 | 0.00 | 0.00 | 0.00 | 17 | 1010.9 |
| 20260904181232 | 90 | 215 | 13.0 | 25.0 | 0.00 | 0.00 | 0.00 | 18 | 1011.0 |
| 20260904180917 | 90 | 182 | 13.0 | 25.0 | 0.00 | 0.00 | 0.00 | 17 | 1011.0 |
| 20260904180550 | 90 | 169 | 12.0 | 25.0 | 0.00 | 0.00 | 0.00 | 17 | 1010.9 |
| 20260904175927 | 90 | 212 | 10.0 | 20.0 | 0.00 | 0.00 | 0.00 | 18 | 1011.0 |
| 20260904175606 | 90 | 179 | 11.0 | 20.0 | 0.00 | 0.00 | 0.00 | 18 | 1010.9 |
| 20260904175242 | 89 | 167 | 12.0 | 25.0 | 0.00 | 0.00 | 0.00 | 18 | 1011.0 |
| 20260904174919 | 89 | 165 | 12.0 | 25.0 | 0.00 | 0.00 | 0.00 | 19 | 1010.8 |
| 20260904174259 | 89 | 132 | 11.0 | 25.0 | 0.00 | 0.00 | 0.00 | 19 | 1010.9 |
| 20260904173942 | 88 | 150 | 10.0 | 25.0 | 0.00 | 0.00 | 0.00 | 19 | 1010.8 |
| 20260904173622 | 88 | 146 | 10.0 | 25.0 | 0.00 | 0.00 | 0.00 | 19 | 1010.9 |
| 20260904173300 | 88 | 178 | 10.0 | 22.0 | 0.00 | 0.00 | 0.00 | 19 | 1010.9 |
| 20260904172633 | 88 | 173 | 12.0 | 27.0 | 0.00 | 0.00 | 0.00 | 20 | 1010.9 |
| 20260904172313 | 88 | 129 | 13.0 | 27.0 | 0.00 | 0.00 | 0.00 | 19 | 1010.8 |
| 20260904171948 | 88 | 157 | 13.0 | 27.0 | 0.00 | 0.00 | 0.00 | 21 | 1010.8 |
| 20260904171320 | 88 | 172 | 14.0 | 27.0 | 0.00 | 0.00 | 0.00 | 20 | 1010.7 |
| 20260904170658 | 88 | 148 | 12.0 | 26.0 | 0.00 | 0.00 | 0.00 | 19 | 1010.6 |
| 20260904170036 | 87 | 140 | 12.0 | 24.0 | 0.00 | 0.00 | 0.00 | 20 | 1010.5 |
| 20260904165721 | 87 | 136 | 12.0 | 24.0 | 0.00 | 0.00 | 0.00 | 21 | 1010.5 |
| 20260904165357 | 87 | 169 | 12.0 | 24.0 | 0.00 | 0.00 | 0.00 | 21 | 1010.4 |
| 20260904165036 | 87 | 200 | 12.0 | 21.0 | 0.00 | 0.00 | 0.00 | 21 | 1010.4 |
| 20260904164718 | 86 | 129 | 11.0 | 20.0 | 0.00 | 0.00 | 0.00 | 22 | 1010.4 |
| 20260904164358 | 86 | 156 | 10.0 | 20.0 | 0.00 | 0.00 | 0.00 | 22 | 1010.4 |
| 20260904164031 | 86 | 180 | 9.0 | 21.0 | 0.00 | 0.00 | 0.00 | 22 | 1010.4 |
| 20260904163114 | 86 | 161 | 8.0 | 21.0 | 0.00 | 0.00 | 0.00 | 23 | 1010.4 |
| 20260904162446 | 85 | 175 | 8.0 | 21.0 | 0.00 | 0.00 | 0.00 | 24 | 1010.4 |
| 20260904162129 | 85 | 140 | 9.0 | 21.0 | 0.00 | 0.00 | 0.00 | 23 | 1010.4 |
| 20260904161811 | 85 | 148 | 9.0 | 21.0 | 0.00 | 0.00 | 0.00 | 24 | 1010.4 |
| 20260904161446 | 85 | 188 | 9.0 | 21.0 | 0.00 | 0.00 | 0.00 | 24 | 1010.4 |
| 20260904161126 | 85 | 171 | 9.0 | 21.0 | 0.00 | 0.00 | 0.00 | 24 | 1010.3 |
| 20260904160807 | 85 | 182 | 9.0 | 21.0 | 0.00 | 0.00 | 0.00 | 24 | 1010.3 |
| 20260904160444 | 84 | 147 | 8.0 | 18.0 | 0.00 | 0.00 | 0.00 | 25 | 1010.3 |
| 20260904160124 | 84 | 141 | 8.0 | 18.0 | 0.00 | 0.00 | 0.00 | 25 | 1010.2 |
| 20260904155758 | 84 | 140 | 8.0 | 16.0 | 0.00 | 0.00 | 0.00 | 26 | 1010.2 |
| 20260904155430 | 83 | 188 | 8.0 | 20.0 | 0.00 | 0.00 | 0.00 | 26 | 1010.1 |
| 20260904155107 | 83 | 110 | 7.0 | 20.0 | 0.00 | 0.00 | 0.00 | 26 | 1010.2 |
| 20260904152639 | 81 | 156 | 8.0 | 17.0 | 0.00 | 0.00 | 0.00 | 28 | 1010.2 |
| 20260904152013 | 81 | 200 | 9.0 | 21.0 | 0.00 | 0.00 | 0.00 | 28 | 1010.1 |
| 20260904151350 | 80 | 143 | 10.0 | 21.0 | 0.00 | 0.00 | 0.00 | 29 | 1010.2 |
| 20260904151034 | 80 | 196 | 10.0 | 21.0 | 0.00 | 0.00 | 0.00 | 29 | 1010.1 |
| 20260904150413 | 79 | 159 | 10.0 | 17.0 | 0.00 | 0.00 | 0.00 | 30 | 1010.2 |
| 20260904150058 | 79 | 148 | 10.0 | 17.0 | 0.00 | 0.00 | 0.00 | 30 | 1010.1 |
| 20260904145740 | 79 | 166 | 9.0 | 17.0 | 0.00 | 0.00 | 0.00 | 30 | 1010.2 |
| 20260904145415 | 78 | 178 | 9.0 | 16.0 | 0.00 | 0.00 | 0.00 | 30 | 1010.1 |
| 20260904145059 | 78 | 169 | 9.0 | 20.0 | 0.00 | 0.00 | 0.00 | 31 | 1010.2 |
| 20260904144742 | 78 | 160 | 10.0 | 20.0 | 0.00 | 0.00 | 0.00 | 31 | 1010.1 |
| 20260904144417 | 77 | 176 | 10.0 | 20.0 | 0.00 | 0.00 | 0.00 | 31 | 1010.1 |
| 20260904144057 | 77 | 166 | 10.0 | 20.0 | 0.00 | 0.00 | 0.00 | 32 | 1010.1 |
| 20260904143734 | 77 | 158 | 9.0 | 20.0 | 0.00 | 0.00 | 0.00 | 32 | 1010.0 |
| 20260904143410 | 76 | 146 | 9.0 | 20.0 | 0.00 | 0.00 | 0.00 | 33 | 1010.1 |
| 20260904143055 | 76 | 168 | 9.0 | 15.0 | 0.00 | 0.00 | 0.00 | 33 | 1010.0 |
| 20260904142737 | 75 | 144 | 9.0 | 15.0 | 0.00 | 0.00 | 0.00 | 33 | 1010.0 |
| 20260904142122 | 75 | 162 | 9.0 | 16.0 | 0.00 | 0.00 | 0.00 | 33 | 1010.0 |
| 20260904141806 | 75 | 160 | 9.0 | 16.0 | 0.00 | 0.00 | 0.00 | 34 | 1009.9 |
| 20260904141449 | 75 | 163 | 9.0 | 16.0 | 0.00 | 0.00 | 0.00 | 33 | 1009.8 |
| 20260904141135 | 75 | 157 | 9.0 | 16.0 | 0.00 | 0.00 | 0.00 | 34 | 1009.9 |
| 20260904140815 | 75 | 132 | 9.0 | 16.0 | 0.00 | 0.00 | 0.00 | 34 | 1009.8 |
| 20260904140455 | 75 | 153 | 8.0 | 16.0 | 0.00 | 0.00 | 0.00 | 34 | 1009.9 |
| 20260904140131 | 75 | 165 | 8.0 | 15.0 | 0.00 | 0.00 | 0.00 | 34 | 1009.8 |
| 20260904135812 | 75 | 157 | 8.0 | 14.0 | 0.00 | 0.00 | 0.00 | 34 | 1009.7 |
| 20260904135452 | 74 | 191 | 8.0 | 14.0 | 0.00 | 0.00 | 0.00 | 33 | 1009.7 |
| 20260904135134 | 74 | 149 | 7.0 | 15.0 | 0.00 | 0.00 | 0.00 | 34 | 1009.7 |
| 20260904134813 | 74 | 155 | 7.0 | 15.0 | 0.00 | 0.00 | 0.00 | 33 | 1009.7 |
| 20260904134458 | 74 | 142 | 7.0 | 15.0 | 0.00 | 0.00 | 0.00 | 34 | 1009.7 |
| 20260904134133 | 74 | 193 | 7.0 | 15.0 | 0.00 | 0.00 | 0.00 | 33 | 1009.6 |
| 20260904133818 | 74 | 180 | 6.0 | 15.0 | 0.00 | 0.00 | 0.00 | 33 | 1009.6 |
| 20260904133501 | 74 | 160 | 5.0 | 15.0 | 0.00 | 0.00 | 0.00 | 33 | 1009.5 |
| 20260904133145 | 74 | 132 | 4.0 | 11.0 | 0.00 | 0.00 | 0.00 | 34 | 1009.4 |
| 20260904132821 | 74 | 151 | 5.0 | 10.0 | 0.00 | 0.00 | 0.00 | 34 | 1009.4 |
| 20260904132453 | 75 | 98 | 5.0 | 9.0 | 0.00 | 0.00 | 0.00 | 34 | 1009.4 |
| 20260904132138 | 75 | 133 | 5.0 | 11.0 | 0.00 | 0.00 | 0.00 | 34 | 1009.4 |
| 20260904131817 | 75 | 117 | 6.0 | 11.0 | 0.00 | 0.00 | 0.00 | 34 | 1009.4 |
| 20260904131502 | 75 | 144 | 6.0 | 11.0 | 0.00 | 0.00 | 0.00 | 34 | 1009.3 |
| 20260904131138 | 75 | 126 | 6.0 | 13.0 | 0.00 | 0.00 | 0.00 | 34 | 1009.4 |
| 20260904130822 | 75 | 156 | 7.0 | 13.0 | 0.00 | 0.00 | 0.00 | 34 | 1009.3 |
| 20260904130458 | 75 | 142 | 7.0 | 13.0 | 0.00 | 0.00 | 0.00 | 34 | 1009.2 |
| 20260904130141 | 75 | 151 | 8.0 | 13.0 | 0.00 | 0.00 | 0.00 | 34 | 1009.2 |
| 20260904125820 | 75 | 111 | 8.0 | 13.0 | 0.00 | 0.00 | 0.00 | 34 | 1009.2 |
| 20260904125500 | 75 | 115 | 8.0 | 13.0 | 0.00 | 0.00 | 0.00 | 33 | 1009.1 |
| 20260904125142 | 75 | 184 | 8.0 | 15.0 | 0.00 | 0.00 | 0.00 | 33 | 1009.0 |
| 20260904124821 | 75 | 138 | 7.0 | 15.0 | 0.00 | 0.00 | 0.00 | 33 | 1009.1 |
| 20260904124507 | 75 | 140 | 7.0 | 15.0 | 0.00 | 0.00 | 0.00 | 33 | 1009.0 |
| 20260904124142 | 75 | 135 | 8.0 | 15.0 | 0.00 | 0.00 | 0.00 | 33 | 1008.9 |
| 20260904123820 | 75 | 143 | 8.0 | 15.0 | 0.00 | 0.00 | 0.00 | 33 | 1008.8 |
| 20260904123504 | 75 | 142 | 8.0 | 15.0 | 0.00 | 0.00 | 0.00 | 33 | 1008.7 |
| 20260904123142 | 75 | 123 | 8.0 | 13.0 | 0.00 | 0.00 | 0.00 | 33 | 1008.7 |
| 20260904122819 | 75 | 119 | 7.0 | 12.0 | 0.00 | 0.00 | 0.00 | 33 | 1008.7 |
| 20260904122503 | 75 | 139 | 7.0 | 12.0 | 0.00 | 0.00 | 0.00 | 33 | 1008.6 |
| 20260904122139 | 75 | 131 | 7.0 | 12.0 | 0.00 | 0.00 | 0.00 | 33 | 1008.5 |
| 20260904121816 | 76 | 171 | 7.0 | 13.0 | 0.00 | 0.00 | 0.00 | 33 | 1008.5 |
| 20260904121451 | 76 | 146 | 6.0 | 13.0 | 0.00 | 0.00 | 0.00 | 33 | 1008.5 |
| 20260904121135 | 76 | 134 | 6.0 | 13.0 | 0.00 | 0.00 | 0.00 | 33 | 1008.5 |
| 20260904120812 | 76 | 159 | 6.0 | 13.0 | 0.00 | 0.00 | 0.00 | 33 | 1008.5 |
| 20260904120452 | 76 | 137 | 7.0 | 13.0 | 0.00 | 0.00 | 0.00 | 33 | 1008.5 |
| 20260904115830 | 76 | 123 | 7.0 | 12.0 | 0.00 | 0.00 | 0.00 | 33 | 1008.5 |
| 20260904115505 | 76 | 137 | 7.0 | 11.0 | 0.00 | 0.00 | 0.00 | 33 | 1008.5 |
| 20260904115144 | 76 | 140 | 7.0 | 11.0 | 0.00 | 0.00 | 0.00 | 33 | 1008.4 |
| 20260904114819 | 76 | 147 | 7.0 | 11.0 | 0.00 | 0.00 | 0.00 | 33 | 1008.4 |
| 20260904114454 | 76 | 148 | 6.0 | 11.0 | 0.00 | 0.00 | 0.00 | 32 | 1008.4 |
| 20260904114136 | 76 | 132 | 6.0 | 11.0 | 0.00 | 0.00 | 0.00 | 32 | 1008.4 |
| 20260904113818 | 76 | 128 | 5.0 | 11.0 | 0.00 | 0.00 | 0.00 | 32 | 1008.5 |
| 20260904113451 | 76 | 132 | 5.0 | 11.0 | 0.00 | 0.00 | 0.00 | 32 | 1008.5 |
| 20260904113132 | 76 | 119 | 5.0 | 11.0 | 0.00 | 0.00 | 0.00 | 31 | 1008.4 |
| 20260904112815 | 76 | 144 | 5.0 | 11.0 | 0.00 | 0.00 | 0.00 | 31 | 1008.4 |
| 20260904112456 | 76 | 153 | 5.0 | 10.0 | 0.00 | 0.00 | 0.00 | 32 | 1008.4 |
| 20260904112138 | 76 | 144 | 5.0 | 10.0 | 0.00 | 0.00 | 0.00 | 32 | 1008.3 |
| 20260904111824 | 76 | 155 | 5.0 | 10.0 | 0.00 | 0.00 | 0.00 | 31 | 1008.2 |
| 20260904111502 | 76 | 152 | 6.0 | 10.0 | 0.00 | 0.00 | 0.00 | 31 | 1008.3 |
| 20260904111142 | 76 | 136 | 6.0 | 10.0 | 0.00 | 0.00 | 0.00 | 31 | 1008.3 |
| 20260904110820 | 76 | 133 | 5.0 | 10.0 | 0.00 | 0.00 | 0.00 | 32 | 1008.2 |
| 20260904110503 | 76 | 162 | 4.0 | 11.0 | 0.00 | 0.00 | 0.00 | 32 | 1008.2 |
| 20260904110144 | 76 | 157 | 4.0 | 11.0 | 0.00 | 0.00 | 0.00 | 31 | 1008.1 |
| 20260904105826 | 76 | 147 | 4.0 | 11.0 | 0.00 | 0.00 | 0.00 | 31 | 1008.1 |
| 20260904105510 | 76 | 187 | 5.0 | 11.0 | 0.00 | 0.00 | 0.00 | 31 | 1008.1 |
| 20260904105150 | 76 | 145 | 4.0 | 11.0 | 0.00 | 0.00 | 0.00 | 31 | 1008.1 |
| 20260904104825 | 76 | 142 | 4.0 | 11.0 | 0.00 | 0.00 | 0.00 | 31 | 1008.1 |
| 20260904104504 | 76 | 141 | 2.0 | 6.0 | 0.00 | 0.00 | 0.00 | 31 | 1008.0 |
| 20260904104142 | 76 | 128 | 2.0 | 5.0 | 0.00 | 0.00 | 0.00 | 31 | 1008.1 |
| 20260904103825 | 77 | 123 | 1.0 | 5.0 | 0.00 | 0.00 | 0.00 | 31 | 1008.0 |
| 20260904103500 | 77 | 120 | 2.0 | 8.0 | 0.00 | 0.00 | 0.00 | 31 | 1008.0 |
| 20260904103137 | 77 | 120 | 2.0 | 8.0 | 0.00 | 0.00 | 0.00 | 30 | 1008.0 |
| 20260904102821 | 77 | 134 | 3.0 | 8.0 | 0.00 | 0.00 | 0.00 | 31 | 1008.0 |
| 20260904102459 | 77 | 119 | 3.0 | 8.0 | 0.00 | 0.00 | 0.00 | 30 | 1007.9 |
| 20260904102139 | 77 | 146 | 3.0 | 8.0 | 0.00 | 0.00 | 0.00 | 30 | 1007.9 |
| 20260904101820 | 77 | 131 | 3.0 | 8.0 | 0.00 | 0.00 | 0.00 | 30 | 1007.9 |
| 20260904101502 | 77 | 130 | 3.0 | 8.0 | 0.00 | 0.00 | 0.00 | 30 | 1007.9 |
| 20260904101144 | 77 | 146 | 4.0 | 8.0 | 0.00 | 0.00 | 0.00 | 30 | 1007.9 |
| 20260904100824 | 77 | 157 | 4.0 | 8.0 | 0.00 | 0.00 | 0.00 | 31 | 1007.9 |
| 20260904100203 | 77 | 146 | 4.0 | 9.0 | 0.00 | 0.00 | 0.00 | 30 | 1007.8 |
| 20260904095547 | 77 | 130 | 5.0 | 9.0 | 0.00 | 0.00 | 0.00 | 30 | 1007.8 |
| 20260904094925 | 77 | 140 | 4.0 | 9.0 | 0.00 | 0.00 | 0.00 | 30 | 1007.7 |
| 20260904094606 | 77 | 141 | 3.0 | 8.0 | 0.00 | 0.00 | 0.00 | 30 | 1007.6 |
| 20260904094247 | 77 | 144 | 3.0 | 7.0 | 0.00 | 0.00 | 0.00 | 30 | 1007.6 |
| 20260904093922 | 77 | 143 | 2.0 | 7.0 | 0.00 | 0.00 | 0.00 | 29 | 1007.6 |
| 20260904093602 | 77 | 143 | 2.0 | 7.0 | 0.00 | 0.00 | 0.00 | 29 | 1007.6 |
| 20260904093244 | 77 | 142 | 2.0 | 6.0 | 0.00 | 0.00 | 0.00 | 29 | 1007.5 |
| 20260904092629 | 77 | 165 | 3.0 | 6.0 | 0.00 | 0.00 | 0.00 | 30 | 1007.5 |
| 20260904092310 | 77 | 156 | 2.0 | 6.0 | 0.00 | 0.00 | 0.00 | 29 | 1007.6 |
| 20260904091954 | 77 | 140 | 2.0 | 6.0 | 0.00 | 0.00 | 0.00 | 30 | 1007.5 |
| 20260904091632 | 77 | 142 | 2.0 | 4.0 | 0.00 | 0.00 | 0.00 | 29 | 1007.6 |
| 20260904091308 | 77 | 177 | 2.0 | 6.0 | 0.00 | 0.00 | 0.00 | 29 | 1007.5 |
| 20260904090948 | 77 | 150 | 2.0 | 6.0 | 0.00 | 0.00 | 0.00 | 29 | 1007.5 |
| 20260904090626 | 77 | 153 | 2.0 | 6.0 | 0.00 | 0.00 | 0.00 | 29 | 1007.5 |
| 20260904090304 | 77 | 155 | 3.0 | 9.0 | 0.00 | 0.00 | 0.00 | 29 | 1007.4 |
| 20260904085938 | 77 | 158 | 4.0 | 9.0 | 0.00 | 0.00 | 0.00 | 29 | 1007.4 |
| 20260904085623 | 77 | 157 | 4.0 | 9.0 | 0.00 | 0.00 | 0.00 | 29 | 1007.4 |
| 20260904085305 | 77 | 153 | 5.0 | 9.0 | 0.00 | 0.00 | 0.00 | 29 | 1007.4 |
| 20260904084944 | 77 | 182 | 4.0 | 9.0 | 0.00 | 0.00 | 0.00 | 29 | 1007.3 |
| 20260904084619 | 77 | 167 | 4.0 | 9.0 | 0.00 | 0.00 | 0.00 | 28 | 1007.3 |
| 20260904084302 | 77 | 146 | 3.0 | 8.0 | 0.00 | 0.00 | 0.00 | 28 | 1007.4 |
| 20260904083937 | 77 | 148 | 3.0 | 8.0 | 0.00 | 0.00 | 0.00 | 27 | 1007.4 |
| 20260904083620 | 77 | 146 | 3.0 | 6.0 | 0.00 | 0.00 | 0.00 | 27 | 1007.5 |
| 20260904083306 | 77 | 142 | 3.0 | 6.0 | 0.00 | 0.00 | 0.00 | 27 | 1007.4 |
| 20260904082947 | 77 | 131 | 3.0 | 6.0 | 0.00 | 0.00 | 0.00 | 27 | 1007.5 |
| 20260904082024 | 78 | 161 | 2.0 | 8.0 | 0.00 | 0.00 | 0.00 | 26 | 1007.5 |
| 20260904081702 | 78 | 177 | 3.0 | 8.0 | 0.00 | 0.00 | 0.00 | 26 | 1007.5 |
| 20260904081340 | 78 | 180 | 3.0 | 8.0 | 0.00 | 0.00 | 0.00 | 26 | 1007.5 |
| 20260904081020 | 78 | 157 | 3.0 | 8.0 | 0.00 | 0.00 | 0.00 | 26 | 1007.5 |
| 20260904080652 | 78 | 151 | 3.0 | 5.0 | 0.00 | 0.00 | 0.00 | 25 | 1007.5 |
| 20260904080330 | 78 | 167 | 2.0 | 5.0 | 0.00 | 0.00 | 0.00 | 25 | 1007.5 |
| 20260904080013 | 78 | 205 | 1.0 | 5.0 | 0.00 | 0.00 | 0.00 | 25 | 1007.5 |
| 20260904075648 | 78 | 173 | 1.0 | 5.0 | 0.00 | 0.00 | 0.00 | 24 | 1007.5 |
| 20260904075332 | 79 | 173 | 2.0 | 5.0 | 0.00 | 0.00 | 0.00 | 24 | 1007.5 |
| 20260904075015 | 79 | 94 | 2.0 | 5.0 | 0.00 | 0.00 | 0.00 | 24 | 1007.5 |
| 20260904074652 | 79 | 117 | 2.0 | 3.0 | 0.00 | 0.00 | 0.00 | 23 | 1007.6 |
| 20260904074326 | 79 | 120 | 2.0 | 3.0 | 0.00 | 0.00 | 0.00 | 23 | 1007.6 |
| 20260904074009 | 79 | 117 | 1.0 | 3.0 | 0.00 | 0.00 | 0.00 | 22 | 1007.6 |
| 20260904073352 | 79 | 126 | 1.0 | 4.0 | 0.00 | 0.00 | 0.00 | 22 | 1007.6 |
| 20260904073036 | 79 | 126 | 2.0 | 4.0 | 0.00 | 0.00 | 0.00 | 22 | 1007.6 |
| 20260904072714 | 80 | 151 | 1.0 | 4.0 | 0.00 | 0.00 | 0.00 | 22 | 1007.6 |
| 20260904072400 | 80 | 113 | 1.0 | 7.0 | 0.00 | 0.00 | 0.00 | 21 | 1007.5 |
| 20260904072034 | 80 | 134 | 1.0 | 7.0 | 0.00 | 0.00 | 0.00 | 21 | 1007.5 |
| 20260904071716 | 80 | 163 | 2.0 | 7.0 | 0.00 | 0.00 | 0.00 | 21 | 1007.5 |
| 20260904071354 | 80 | 192 | 2.0 | 7.0 | 0.00 | 0.00 | 0.00 | 21 | 1007.4 |
| 20260904071038 | 80 | 200 | 3.0 | 7.0 | 0.00 | 0.00 | 0.00 | 20 | 1007.4 |
| 20260904070721 | 80 | 181 | 2.0 | 7.0 | 0.00 | 0.00 | 0.00 | 20 | 1007.4 |
| 20260904070357 | 80 | 202 | 2.0 | 6.0 | 0.00 | 0.00 | 0.00 | 19 | 1007.4 |
| 20260904070040 | 80 | 198 | 2.0 | 6.0 | 0.00 | 0.00 | 0.00 | 19 | 1007.4 |
| 20260904065719 | 80 | 203 | 2.0 | 6.0 | 0.00 | 0.00 | 0.00 | 18 | 1007.4 |
| 20260904064803 | 80 | 208 | 2.0 | 6.0 | 0.00 | 0.00 | 0.00 | 17 | 1007.3 |
| 20260904064445 | 80 | 184 | 2.0 | 6.0 | 0.00 | 0.00 | 0.00 | 16 | 1007.3 |
| 20260904064128 | 81 | 189 | 2.0 | 8.0 | 0.00 | 0.00 | 0.00 | 16 | 1007.3 |
| 20260904063805 | 81 | 219 | 2.0 | 8.0 | 0.00 | 0.00 | 0.00 | 16 | 1007.3 |
| 20260904062848 | 81 | 204 | 3.0 | 8.0 | 0.00 | 0.00 | 0.00 | 16 | 1007.2 |
| 20260904062229 | 81 | 148 | 3.0 | 8.0 | 0.00 | 0.00 | 0.00 | 16 | 1007.2 |
| 20260904061910 | 81 | 169 | 2.0 | 7.0 | 0.00 | 0.00 | 0.00 | 15 | 1007.2 |
| 20260904061552 | 81 | 200 | 2.0 | 5.0 | 0.00 | 0.00 | 0.00 | 16 | 1007.2 |